Satellite: ORSTED
Catalog number: 25635
Epoch time:      103046.48107150
Element set:     832 
Inclination:       96.4500 deg
RA of node:        33.4519 deg
Eccentricity:    0.0145359
Arg of perigee:   339.5821 deg
Mean anomaly:      19.9599 deg
Mean motion:   14.44838233 rev/day
Decay rate:    1.4420E-005 rev/day^2
Epoch rev:           20949
Checksum:              309

Satellite: SUNSAT
Catalog number: 25636
Epoch time:      103047.22086017
Element set:     664 
Inclination:       96.4524 deg
RA of node:        32.6766 deg
Eccentricity:    0.0149241
Arg of perigee:   343.5862 deg
Mean anomaly:      16.0528 deg
Mean motion:   14.42954554 rev/day
Decay rate:    7.4899E-006 rev/day^2
Epoch rev:           20947
Checksum:              327

Satellite: UOSAT 12
Catalog number: 25693
Epoch time:      103047.11162965
Element set:     707 
Inclination:       64.5603 deg
RA of node:        18.3058 deg
Eccentricity:    0.0020155
Arg of perigee:   315.7904 deg
Mean anomaly:      44.1587 deg
Mean motion:   14.76388008 rev/day
Decay rate:    6.9799E-006 rev/day^2
Epoch rev:           20589
Checksum:              330

Satellite: FENGYUN 1C
Catalog number: 25730
Epoch time:      103046.18025444
Element set:     767 
Inclination:       98.6343 deg
RA of node:        70.7076 deg
Eccentricity:    0.0014665
Arg of perigee:    15.8621 deg
Mean anomaly:     344.3007 deg
Mean motion:   14.11733479 rev/day
Decay rate:    2.4999E-007 rev/day^2
Epoch rev:           19415
Checksum:              313

Satellite: ASTRA 1H
Catalog number: 25785
Epoch time:      103041.00000000
Element set:     371 
Inclination:        0.0122 deg
RA of node:       319.8851 deg
Eccentricity:    0.0002995
Arg of perigee:    65.1991 deg
Mean anomaly:     133.7806 deg
Mean motion:    1.00273184 rev/day
Decay rate:    1.2900E-006 rev/day^2
Epoch rev:            1341
Checksum:              233

Satellite: TERRA
Catalog number: 25994
Epoch time:      103047.11535945
Element set:     701 
Inclination:       98.1991 deg
RA of node:       123.3744 deg
Eccentricity:    0.0000882
Arg of perigee:    64.1437 deg
Mean anomaly:     295.9856 deg
Mean motion:   14.57130085 rev/day
Decay rate:    6.0100E-006 rev/day^2
Epoch rev:           16831
Checksum:              308

Satellite: JAWSAT
Catalog number: 26061
Epoch time:      103047.21310992
Element set:     766 
Inclination:      100.2083 deg
RA of node:       103.8460 deg
Eccentricity:    0.0034714
Arg of perigee:   286.2058 deg
Mean anomaly:      73.5306 deg
Mean motion:   14.37823593 rev/day
Decay rate:    6.7199E-006 rev/day^2
Epoch rev:           16019
Checksum:              293

Satellite: OPAL
Catalog number: 26063
Epoch time:      103047.18541879
Element set:     722 
Inclination:      100.2134 deg
RA of node:       101.3337 deg
Eccentricity:    0.0036907
Arg of perigee:   294.0416 deg
Mean anomaly:      65.6900 deg
Mean motion:   14.35480623 rev/day
Decay rate:    1.8099E-006 rev/day^2
Epoch rev:           16004
Checksum:              377

Satellite: ASUSAT
Catalog number: 26065
Epoch time:      103046.86353930
Element set:     734 
Inclination:      100.2112 deg
RA of node:       101.1008 deg
Eccentricity:    0.0036999
Arg of perigee:   295.8608 deg
Mean anomaly:      63.8759 deg
Mean motion:   14.35508038 rev/day
Decay rate:    2.0600E-006 rev/day^2
Epoch rev:           15999
Checksum:              305

Satellite: GOES 11
Catalog number: 26352
Epoch time:      103046.22189279
Element set:     24 
Inclination:        0.1322 deg
RA of node:       103.9729 deg
Eccentricity:    0.0003625
Arg of perigee:   194.8141 deg
Mean anomaly:     172.5786 deg
Mean motion:    1.00265206 rev/day
Decay rate:   -3.3000E-007 rev/day^2
Epoch rev:            1020
Checksum:              246

Satellite: EUTELSAT W4
Catalog number: 26369
Epoch time:      103042.91619900
Element set:     352 
Inclination:        0.0295 deg
RA of node:         8.5955 deg
Eccentricity:    0.0003064
Arg of perigee:   313.2309 deg
Mean anomaly:     185.6602 deg
Mean motion:    1.00275437 rev/day
Decay rate:    1.6400E-006 rev/day^2
Epoch rev:             998
Checksum:              275

Satellite: FENGYUN 2B
Catalog number: 26382
Epoch time:      103047.19290339
Element set:     795 
Inclination:        0.5775 deg
RA of node:       287.3581 deg
Eccentricity:    0.0001592
Arg of perigee:   228.9221 deg
Mean anomaly:     163.3127 deg
Mean motion:    1.00277871 rev/day
Decay rate:   -3.3100E-006 rev/day^2
Epoch rev:             968
Checksum:              297

Satellite: EUTELSAT W1
Catalog number: 26487
Epoch time:      103045.23369793
Element set:     355 
Inclination:        0.0241 deg
RA of node:       276.4338 deg
Eccentricity:    0.0003902
Arg of perigee:    58.5322 deg
Mean anomaly:     262.9198 deg
Mean motion:    1.00273247 rev/day
Decay rate:    7.2000E-007 rev/day^2
Epoch rev:             897
Checksum:              286

Satellite: ASTRA 2B
Catalog number: 26494
Epoch time:      103041.00000000
Element set:     254 
Inclination:        0.0178 deg
RA of node:       354.5658 deg
Eccentricity:    0.0005000
Arg of perigee:   302.8402 deg
Mean anomaly:     230.4186 deg
Mean motion:    1.00276704 rev/day
Decay rate:    1.5900E-006 rev/day^2
Epoch rev:             883
Checksum:              222

Satellite: NOAA 16
Catalog number: 26536
Epoch time:      103046.88898425
Element set:     209 
Inclination:       98.9018 deg
RA of node:       355.1925 deg
Eccentricity:    0.0010276
Arg of perigee:   317.5855 deg
Mean anomaly:      42.4505 deg
Mean motion:   14.11904332 rev/day
Decay rate:    3.1300E-006 rev/day^2
Epoch rev:           12377
Checksum:              309

Satellite: SAUDISAT 1A
Catalog number: 26545
Epoch time:      103046.50298556
Element set:     412 
Inclination:       64.5588 deg
RA of node:        41.3454 deg
Eccentricity:    0.0052327
Arg of perigee:   239.2134 deg
Mean anomaly:     120.3829 deg
Mean motion:   14.78976966 rev/day
Decay rate:    1.5649E-005 rev/day^2
Epoch rev:           12876
Checksum:              431

Satellite: UNISAT
Catalog number: 26547
Epoch time:      103046.96405055
Element set:     431 
Inclination:       64.5577 deg
RA of node:        42.1731 deg
Eccentricity:    0.0059479
Arg of perigee:   241.2356 deg
Mean anomaly:     118.2791 deg
Mean motion:   14.79743159 rev/day
Decay rate:    2.6609E-005 rev/day^2
Epoch rev:           12880
Checksum:              420

Satellite: TIUNGSAT 1
Catalog number: 26548
Epoch time:      103045.99014050
Element set:     415 
Inclination:       64.5573 deg
RA of node:        35.8507 deg
Eccentricity:    0.0045778
Arg of perigee:   238.3933 deg
Mean anomaly:     121.2704 deg
Mean motion:   14.81262202 rev/day
Decay rate:    2.0150E-005 rev/day^2
Epoch rev:           12883
Checksum:              285

Satellite: SAUDISAT 1B
Catalog number: 26549
Epoch time:      103047.07819402
Element set:     693 
Inclination:       64.5511 deg
RA of node:        43.6770 deg
Eccentricity:    0.0056760
Arg of perigee:   239.2734 deg
Mean anomaly:     120.2773 deg
Mean motion:   14.77915759 rev/day
Decay rate:    1.4909E-005 rev/day^2
Epoch rev:           12877
Checksum:              331

Satellite: AMSAT OSCAR 40
Catalog number: 26609
Epoch time:      103046.24037137
Element set:     311 
Inclination:        8.0800 deg
RA of node:        64.6767 deg
Eccentricity:    0.7942000
Arg of perigee:   144.0329 deg
Mean anomaly:     312.8612 deg
Mean motion:    1.25596569 rev/day
Decay rate:   -1.1800E-006 rev/day^2
Epoch rev:            1054
Checksum:              271

Satellite: GOES 12
Catalog number: 26871
Epoch time:      103044.63803907
Element set:     818 
Inclination:        0.3394 deg
RA of node:       276.4190 deg
Eccentricity:    0.0003237
Arg of perigee:     5.2648 deg
Mean anomaly:     355.1756 deg
Mean motion:    1.00363016 rev/day
Decay rate:   -1.5199E-006 rev/day^2
Epoch rev:             578
Checksum:              292

Satellite: PCSAT
Catalog number: 26931
Epoch time:      103046.58586783
Element set:     402 
Inclination:       67.0475 deg
RA of node:       263.2944 deg
Eccentricity:    0.0005017
Arg of perigee:   265.0499 deg
Mean anomaly:      95.0029 deg
Mean motion:   14.29114276 rev/day
Decay rate:    2.2900E-006 rev/day^2
Epoch rev:            7192
Checksum:              307

Satellite: SAPPHIRE
Catalog number: 26932
Epoch time:      103046.84418935
Element set:     397 
Inclination:       67.0551 deg
RA of node:       262.3354 deg
Eccentricity:    0.0005032
Arg of perigee:   240.4738 deg
Mean anomaly:     119.5863 deg
Mean motion:   14.29293139 rev/day
Decay rate:    7.3000E-007 rev/day^2
Epoch rev:            7198
Checksum:              310

Satellite: ENVISAT
Catalog number: 27386
Epoch time:      103047.16980644
Element set:     943 
Inclination:       98.5455 deg
RA of node:       115.7506 deg
Eccentricity:    0.0000852
Arg of perigee:   105.9646 deg
Mean anomaly:     254.1627 deg
Mean motion:   14.32245488 rev/day
Decay rate:   -6.1099E-006 rev/day^2
Epoch rev:            5040
Checksum:              320

Satellite: IDEFIX/ARIANE 
Catalog number: 27422
Epoch time:      103047.22006432
Element set:     234 
Inclination:       98.6947 deg
RA of node:       126.4331 deg
Eccentricity:    0.0013037
Arg of perigee:   153.7168 deg
Mean anomaly:     206.4676 deg
Mean motion:   14.27969248 rev/day
Decay rate:    2.8800E-006 rev/day^2
Epoch rev:            4112
Checksum:              296

